Погода в Ла-Чоррере

Колумбия     1°26′23″S   72°47′34″W
темп.,
°C
ветер,
м/с
пор.,
м/с
влажн.,
%
обл.,
%
осадки,
мм/ч
давл.,
гПа
погр.,
м
6 марта, сб
сб601:00+23ссв149964 4.8 1010132
04:00+22ююв13100100 6.7 1009143
07:00+22ююв1499100 7.1 1011173
10:00+30вюв136264 0.1 1013778
13:00+30ю226942 2.7 1008968
16:00+29ююв128890 4.3 1006203
19:00+24ссз119495 8.1 100824
22:00+23ссз31099100 9.2 1011327
7 марта, вс
вс701:00+22с1199100 9.9 101028
04:00+21юз0199100 3.4 101023
07:00+22ссв1899100 7.7 1012449
10:00+23ссв1399100 0.7 1015227
13:00+30в1368100 0.8 1011786
16:00+27юз128696 0.9 1007321
19:00+24юз119796 1.6 101024
22:00+23зюз1499100 1.1 1012136
8 марта, пн
пн801:00+22зсз1399100 1.9 1011148
04:00+22с13100100 4.3 1010161
07:00+22всв00100100 8.7 101341
10:00+23ссв00100100 1.9 101484
13:00+24зюз2494100 2.8 1011441
16:00+25зюз1397100 3.7 1009359
19:00+23зюз1299100 5.0 101047
22:00+22сз139999 0.0 1012141
9 марта, вт
вт901:00+22сз11100100 0.2 101130
04:00+22сз13100100 4.4 1010168
07:00+22зсз1599100 9.4 1012268
10:00+22вюв1298100 0.4 1013189
13:00+22ю1199100 2.8 1012197
16:00+23в1399100 0.6 1009264
19:00+22юв11100100 0.6 101049
22:00+22всв14100100 0.0 1011198
10 марта, ср
ср1001:00+21с00100100 0.0 101026
04:00+21сз01100100 0.1 101027
07:00+22в0199100 0.1 101262
10:00+25всв2381100 0.1 1013615
13:00+28в247196 0.8 1010970
16:00+26вюв148798 1.3 1008445
19:00+23вюв119793 2.1 101033
22:00+22всв119899 0.1 101241